Theta_e
346 347 345 346 345 347 351 350 345 347 347 347 346 343 339 335 330 327 326 329 329 335 332 335 342 343 346 348 347 346 346 346 342 341 343 342 344 339 338 340 339 339 338 338 337 337 338 337 338 337 338 337 337 337 336 336 336 336 335 336 337 337 337 337 338 338 340 341 342 343 344 344 347 351
348 349 347 345 345 346 347 348 348 347 347 346 344 344 343 341 333 332 327 327 333 333 338 332 342 343 343 346 346 345 343 346 344 341 341 340 340 337 337 339 339 337 337 336 334 335 335 335 336 335 335 335 336 336 336 336 335 336 336 336 336 337 337 337 337 338 338 339 340 342 343 344 345 346
348 347 344 347 347 349 346 345 345 345 345 345 346 345 344 342 339 335 333 326 334 337 334 340 337 340 346 341 342 344 346 347 344 343 343 344 342 341 342 338 337 336 335 334 333 332 331 332 332 332 333 334 335 335 336 336 336 336 336 336 336 336 336 337 336 336 336 337 337 339 340 341 343 344
346 345 344 346 346 349 348 346 346 347 346 346 346 345 343 342 341 340 335 330 329 339 336 336 341 341 337 342 339 340 342 344 345 342 341 344 344 341 339 341 338 336 334 334 333 332 331 332 332 332 332 333 336 336 336 334 334 334 335 335 335 336 336 335 335 335 335 335 335 336 337 338 339 341
346 347 346 346 347 348 345 346 345 344 345 345 345 346 345 342 341 339 336 331 331 336 340 339 338 341 342 335 342 341 341 342 342 342 342 342 339 337 337 338 338 336 334 333 332 332 331 332 332 332 332 333 335 336 337 334 332 333 332 332 331 332 333 332 331 332 333 333 334 335 336 336 337 338
346 348 345 344 345 347 345 346 343 343 341 342 340 341 340 339 339 341 335 333 331 329 336 337 342 339 344 336 342 336 337 337 339 339 341 341 339 336 335 333 334 336 334 332 330 331 330 331 331 331 331 332 332 333 333 332 331 331 330 329 329 329 328 327 328 330 332 332 333 334 334 335 335 336
346 344 344 343 343 344 343 344 343 343 342 342 341 340 341 339 338 340 339 335 330 329 331 338 335 337 341 339 339 342 341 339 338 337 338 336 336 337 337 336 334 334 333 331 330 329 329 330 330 330 331 331 330 329 328 328 328 327 326 326 327 327 326 326 327 329 330 331 331 332 333 333 334 335
343 343 343 342 341 342 342 343 344 344 343 343 344 342 341 341 340 340 341 339 333 332 329 333 334 337 336 337 339 340 340 336 335 335 336 338 336 336 337 334 333 333 332 331 330 329 329 328 328 327 328 327 326 325 324 324 325 325 324 324 324 324 324 324 324 326 326 327 328 330 330 331 331 331
344 343 342 342 343 344 341 341 341 342 342 342 342 341 341 340 340 339 339 338 338 334 331 331 335 337 336 337 338 339 335 336 336 336 335 333 333 335 334 334 335 334 331 331 329 328 328 328 328 327 327 327 326 325 324 324 324 324 323 323 323 323 323 323 322 323 324 324 325 324 325 327 328 328
345 344 345 344 345 343 342 341 342 343 342 342 341 340 341 341 340 339 338 338 338 336 333 332 331 334 333 334 336 338 337 334 333 333 335 337 338 337 335 333 334 334 334 334 336 334 332 330 328 327 327 327 326 325 324 324 323 322 321 319 318 320 321 322 323 323 322 322 324 325 325 326 326 327
344 344 344 344 344 343 343 342 341 342 343 342 341 342 341 340 339 338 337 337 337 335 333 332 332 330 333 333 331 337 340 338 335 331 330 330 333 335 334 333 335 334 334 334 333 333 332 331 331 325 325 326 326 326 325 324 322 321 320 318 317 317 318 318 320 321 320 321 322 321 320 321 324 326
342 343 343 342 343 343 344 343 343 342 341 343 341 342 342 340 339 337 337 337 335 333 332 331 331 333 332 334 335 335 335 333 333 334 331 327 328 331 335 335 333 335 334 333 334 334 333 332 331 327 326 327 327 326 326 327 327 325 321 320 321 321 319 318 318 319 318 318 317 317 318 318 320 322
342 342 342 341 341 344 347 342 341 341 342 342 341 342 342 341 339 337 337 336 334 334 334 331 331 330 330 331 330 329 328 328 327 333 334 330 330 331 330 332 335 335 334 334 333 332 333 332 332 332 332 334 335 334 330 329 331 328 323 321 322 323 321 319 319 319 318 318 317 317 317 318 319 321
343 342 341 341 348 349 349 344 338 334 334 336 340 342 343 342 340 338 336 334 334 333 331 330 330 329 327 327 329 329 330 332 334 331 330 328 331 331 329 330 332 335 333 331 329 332 335 333 331 332 331 333 334 332 332 332 333 331 327 325 324 323 322 320 319 319 318 318 318 317 316 317 319 320
342 341 342 342 346 347 345 343 340 335 332 331 329 329 331 337 340 337 335 334 334 332 330 331 331 328 327 328 329 328 329 330 329 329 329 329 329 327 324 322 328 336 333 331 329 329 335 333 329 330 331 331 331 330 329 330 330 327 326 325 325 324 323 322 322 321 319 318 317 317 316 317 318 318
343 343 342 341 343 343 342 344 344 337 332 329 328 326 325 326 326 330 333 332 331 331 329 329 328 327 326 328 330 329 328 330 331 331 331 329 328 326 324 324 323 335 337 329 327 327 331 332 329 327 328 329 330 330 329 328 328 326 325 325 325 324 323 323 324 324 323 321 321 321 321 320 320 319
343 343 343 342 343 344 350 346 346 346 342 330 324 325 326 326 325 324 323 325 332 332 330 328 328 329 329 328 330 333 334 336 330 330 328 328 328 327 326 326 327 330 337 331 326 323 326 328 326 325 327 329 330 330 329 327 327 326 325 325 324 324 323 322 322 322 322 322 321 321 320 319 319 319
343 343 343 342 342 343 343 344 344 343 343 343 341 337 335 335 335 327 322 321 320 325 329 330 329 332 333 331 333 338 339 333 329 330 329 328 326 326 325 329 329 331 332 326 324 321 323 326 326 325 326 328 329 329 328 326 326 326 324 323 322 322 321 321 321 321 321 321 320 319 318 317 317 317
348 347 345 344 343 345 345 346 344 343 342 342 343 344 341 340 341 339 337 337 332 330 329 328 327 330 332 332 332 337 339 336 334 334 331 331 330 329 330 328 328 327 329 328 325 319 323 326 324 324 325 327 327 328 325 324 324 323 321 321 322 321 320 320 321 320 320 320 319 318 317 316 315 314
342 343 342 342 343 342 343 341 336 339 345 345 344 340 338 336 335 335 335 332 333 336 339 338 335 334 334 329 334 333 330 330 331 329 327 326 326 324 322 321 324 323 327 329 326 321 321 324 322 321 324 324 322 323 325 323 322 320 320 320 320 319 317 317 318 318 319 319 319 318 316 313 312 312
344 343 343 339 338 338 339 338 327 329 335 339 338 334 334 336 336 336 338 329 324 323 322 320 321 322 320 317 316 315 316 324 329 330 325 322 323 320 318 319 320 321 323 324 323 320 318 321 320 319 321 322 321 321 321 323 321 320 318 318 318 317 316 316 315 316 317 317 317 317 317 314 313 313
345 343 342 341 339 336 341 328 324 326 334 337 338 336 336 334 334 334 336 338 335 322 320 320 320 319 320 320 319 318 316 316 321 323 319 321 323 321 320 317 318 320 322 323 325 320 318 320 322 319 319 318 319 319 319 319 319 320 317 318 318 317 317 317 316 316 316 316 317 316 315 313 313 316
337 338 339 340 335 336 336 321 321 322 332 336 336 335 333 331 331 333 337 337 335 334 332 332 332 330 326 329 331 331 324 320 322 323 323 324 323 321 320 319 318 317 319 323 326 319 319 315 317 316 312 310 314 318 318 319 318 318 319 320 321 320 320 319 316 313 313 314 315 315 313 312 313 317
334 337 337 335 326 323 323 320 315 315 320 334 336 335 331 330 330 331 330 335 332 333 332 332 332 331 332 332 331 333 333 331 331 327 326 325 324 323 323 323 321 318 318 322 325 315 315 316 313 316 313 309 308 313 317 316 317 318 319 320 321 322 323 321 319 316 313 313 313 313 312 311 312 317
333 334 336 338 330 323 319 316 313 310 311 322 333 333 331 332 325 319 328 331 331 330 330 330 330 331 331 330 329 329 330 331 330 329 329 330 329 327 324 323 321 320 320 321 321 317 313 314 313 315 315 314 313 312 313 315 316 318 321 322 321 323 324 324 323 324 318 315 313 311 310 311 311 314
333 333 334 338 333 318 315 313 309 307 307 311 327 331 311 307 313 324 326 327 326 326 326 326 326 326 325 325 326 326 327 326 325 324 324 326 327 329 327 325 320 314 314 319 319 317 316 315 315 313 313 312 312 313 311 313 316 318 321 323 323 323 324 322 322 321 321 321 321 318 319 315 314 312
334 337 340 332 313 310 308 305 304 304 307 311 321 311 308 309 310 318 324 325 325 325 323 324 324 324 324 325 325 325 324 324 326 327 326 323 321 322 323 323 320 317 317 319 323 322 317 314 316 314 312 312 311 312 312 311 314 319 320 321 322 323 323 321 320 319 320 320 321 317 314 314 314 315
340 341 340 320 303 299 298 300 303 305 308 321 309 309 309 312 316 321 323 323 323 324 323 323 324 324 325 325 324 324 325 325 327 326 323 322 320 320 320 320 321 320 320 319 317 317 317 315 315 315 314 312 310 309 309 315 318 318 318 320 322 321 321 320 319 320 321 321 321 321 321 321 323 322
331 314 305 300 300 301 300 303 305 306 308 306 305 307 310 316 321 322 323 323 324 324 325 324 323 323 324 324 326 329 330 328 326 324 322 320 320 319 319 320 323 322 318 317 315 315 314 313 312 313 313 313 312 315 316 315 317 316 318 317 316 318 320 320 320 319 320 320 321 321 321 322 322 323
309 306 304 303 304 305 307 313 319 323 322 309 309 309 311 318 320 321 322 324 326 325 323 323 321 322 323 324 325 325 325 323 319 319 318 318 317 317 318 315 314 315 315 315 315 315 315 315 315 315 316 319 319 317 317 316 315 317 318 317 318 320 320 319 319 319 319 319 320 321 323 324 324 325
319 312 312 316 314 317 316 320 322 322 315 314 313 317 319 322 323 325 326 326 325 325 324 322 322 322 323 324 323 324 322 320 321 322 320 317 315 315 314 312 310 310 313 315 316 316 317 317 319 321 318 318 319 319 318 318 316 316 317 319 318 313 316 318 318 319 319 320 321 322 323 325 325 326
330 327 319 318 322 324 322 321 322 324 325 325 324 324 325 324 326 327 325 323 327 325 323 322 323 322 323 322 322 320 318 316 317 320 320 317 315 314 312 309 308 309 310 313 316 319 326 323 321 322 323 321 317 318 319 318 317 317 317 318 318 317 318 317 317 318 320 320 320 320 322 324 324 326
334 331 326 325 325 325 325 324 325 325 325 326 326 327 327 326 326 325 323 323 325 325 324 322 322 323 321 319 318 316 315 317 318 320 317 317 313 312 311 309 309 308 308 310 313 315 317 318 322 323 323 322 321 320 318 315 317 318 316 316 316 316 316 317 317 317 319 319 318 319 320 322 324 326
333 330 328 327 327 327 326 324 325 324 325 325 324 325 321 323 322 324 324 322 323 324 324 323 324 319 317 316 316 315 315 315 316 317 313 311 312 311 310 309 308 309 310 309 309 310 312 316 319 322 322 322 323 322 321 318 316 316 317 317 316 314 316 317 317 318 318 317 317 317 317 319 323 328
326 326 324 323 323 323 322 324 325 326 325 324 323 322 322 322 321 321 319 325 321 323 322 322 321 320 319 315 316 313 312 312 313 311 312 311 313 312 309 307 307 308 308 307 307 309 312 313 314 315 317 317 316 319 325 322 317 317 317 316 315 314 315 316 316 316 317 317 318 316 316 318 321 327
327 325 325 324 324 325 323 324 327 324 324 324 323 322 320 320 325 324 322 325 321 320 318 318 315 314 314 314 312 312 312 312 310 309 310 310 309 309 309 308 309 308 307 306 307 309 310 310 313 314 313 312 311 310 312 322 322 317 314 313 315 315 315 315 316 316 316 316 317 316 314 315 319 326
321 324 324 323 324 324 325 329 327 328 321 321 321 321 324 322 321 323 324 323 324 319 320 317 314 316 316 313 312 312 311 309 306 308 308 309 309 309 307 308 308 307 306 307 308 308 309 310 314 316 313 311 309 308 310 316 316 316 316 314 314 315 314 314 314 313 314 315 315 316 315 317 319 326
323 325 323 323 325 326 327 323 322 326 326 326 322 320 320 321 321 323 323 323 321 318 316 316 312 312 310 310 309 308 308 308 308 308 308 307 307 308 308 305 305 306 306 306 307 308 311 312 316 316 315 311 309 309 309 313 315 316 315 315 313 314 315 313 312 311 312 315 314 315 316 316 320 327
321 322 323 323 326 321 321 321 320 322 320 321 322 323 320 320 322 317 315 315 312 312 312 314 312 310 308 307 307 307 308 308 308 307 307 306 307 307 306 306 305 305 305 305 307 308 310 312 315 315 315 312 311 311 313 312 313 317 316 311 314 314 314 313 311 312 312 312 313 315 314 317 320 323
324 325 327 323 325 328 323 323 322 322 323 323 323 324 320 319 317 316 319 315 314 312 310 309 310 307 308 309 308 308 307 308 308 306 306 307 307 307 306 307 306 306 306 305 305 306 309 313 315 316 316 316 316 318 318 318 318 318 317 315 309 311 313 313 311 311 311 313 313 310 310 313 317 329
328 325 327 327 325 326 326 324 324 328 323 322 323 318 321 322 320 316 313 315 314 313 309 308 309 309 308 310 309 307 306 307 306 306 307 306 306 306 307 307 307 307 304 304 305 307 311 315 319 317 322 320 321 322 318 312 310 311 312 314 310 310 309 311 312 312 311 312 311 309 308 310 318 326
326 325 327 325 326 325 324 321 323 321 322 325 324 322 324 319 317 312 317 315 317 315 311 309 310 310 311 312 309 309 307 306 305 306 306 304 305 306 308 307 305 305 304 304 306 309 314 317 318 318 319 320 318 313 310 310 309 309 311 313 314 311 311 311 311 311 313 312 310 308 307 310 321 324
325 325 327 324 326 325 325 325 324 321 319 319 320 318 315 316 318 317 316 316 316 314 313 312 315 312 311 310 312 311 306 305 306 305 304 305 306 305 305 305 305 305 306 306 310 313 313 314 316 316 317 316 316 315 311 311 310 310 310 310 310 311 313 313 312 312 312 312 311 310 309 307 306 314
326 323 325 327 326 326 320 320 321 320 319 318 316 315 315 317 312 314 314 314 315 314 315 313 313 311 311 312 310 308 307 306 306 305 305 305 306 306 306 306 306 306 306 307 310 311 312 312 314 316 314 314 315 314 312 312 310 310 309 309 309 308 309 311 312 312 313 313 311 309 312 310 309 310
323 325 325 323 325 323 324 324 323 320 321 318 313 318 312 313 313 310 311 311 311 311 313 313 312 312 313 310 307 304 306 305 305 307 306 305 306 306 306 306 305 305 305 308 307 307 309 310 312 315 314 315 316 314 315 313 311 310 309 307 306 307 308 309 308 308 308 309 309 308 309 311 311 309
Wind_Speed
4 4 4 4 4 3 1 2 1 2 2 1 2 3 3 2 3 3 3 3 3 2 3 1 2 3 3 2 2 2 2 3 5 3 3 3 2 5 4 9 10 8 9 9 10 10 9 10 10 11 11 10 10 10 10 10 11 12 12 12 12 13 13 12 12 11 12 12 12 13 13 14 15 16
3 2 3 4 4 4 3 3 2 2 3 3 4 3 3 3 4 3 4 4 2 3 3 4 0 2 2 2 3 3 3 5 6 4 4 4 4 2 5 7 10 12 13 13 14 13 12 12 11 11 11 11 10 10 11 11 11 12 12 13 12 13 13 11 12 12 12 12 13 13 15 15 14 15
3 4 4 3 3 2 3 3 5 4 5 5 4 4 3 3 4 4 3 5 2 3 3 2 2 2 2 2 2 2 2 2 3 3 3 3 4 7 5 8 11 13 15 15 15 14 14 14 13 13 12 12 10 10 11 11 11 11 12 13 14 13 13 12 12 13 12 13 13 12 14 15 15 15
5 5 4 3 3 2 3 3 3 3 3 3 4 4 4 3 3 3 4 5 6 3 4 4 3 3 4 3 4 3 3 4 6 3 4 3 5 6 6 11 15 16 15 15 15 16 16 14 13 12 12 12 11 12 12 13 12 11 11 12 13 14 13 12 12 13 13 13 13 13 14 15 16 16
5 4 3 3 3 4 5 4 4 4 3 4 4 4 4 5 4 5 5 6 6 4 4 4 3 3 3 4 2 3 2 3 4 6 4 4 5 6 6 6 8 11 16 17 15 15 14 13 13 14 14 15 13 14 13 14 13 13 13 13 13 12 13 13 12 12 13 13 13 13 14 14 14 15
3 3 4 4 4 3 4 3 3 4 4 4 4 4 5 5 5 5 5 5 4 5 3 4 3 3 2 4 2 4 4 4 5 5 3 3 3 5 5 6 6 10 6 11 13 13 14 14 15 16 16 16 16 16 15 15 15 14 14 14 14 14 14 13 13 12 12 13 13 13 13 13 14 15
4 4 4 4 4 4 4 3 3 3 4 4 4 4 3 4 4 3 4 4 5 5 5 2 3 2 2 2 2 3 3 4 4 4 4 4 5 5 5 4 4 8 10 8 10 11 12 13 14 15 16 17 17 16 16 16 16 15 15 14 15 15 14 14 14 12 12 12 13 14 14 13 14 15
5 5 4 5 6 5 5 4 4 4 4 4 4 4 4 4 4 3 3 3 3 4 6 3 3 2 4 4 3 3 3 5 5 5 4 4 4 4 4 4 5 9 15 14 12 12 13 14 14 15 16 16 16 16 16 16 16 16 16 16 16 16 15 15 15 15 15 14 13 13 14 14 14 13
6 6 7 7 6 5 5 5 5 5 5 5 4 4 4 5 4 4 4 4 4 4 6 5 3 3 4 4 4 4 5 4 4 5 6 6 6 5 5 5 5 10 12 12 14 14 14 14 15 16 16 16 16 17 17 17 17 17 17 17 17 17 17 16 16 16 16 15 15 15 15 14 14 14
6 5 5 5 5 5 6 6 5 5 6 5 5 5 5 4 4 5 5 4 4 4 5 5 6 4 5 4 4 4 5 5 5 4 4 3 3 3 3 4 5 5 5 5 5 7 9 11 14 15 15 16 17 17 18 18 18 18 18 18 18 18 18 18 18 17 16 16 15 15 15 15 15 15
7 7 6 6 7 7 7 6 6 5 5 5 5 5 5 5 5 5 5 5 5 5 5 5 6 6 5 5 6 4 4 4 5 5 4 6 5 5 6 7 6 5 7 8 11 10 10 12 11 11 14 16 18 18 18 18 18 18 19 19 20 20 21 20 19 19 18 17 16 15 15 15 16 14
8 8 8 8 8 8 7 7 6 7 6 4 5 5 5 5 6 5 5 5 5 5 5 6 5 4 5 4 4 5 5 5 4 5 5 7 6 7 6 6 5 4 6 7 7 8 10 10 12 15 16 18 18 18 17 19 19 20 20 20 21 21 21 20 20 19 19 18 17 16 15 16 16 16
8 7 7 7 7 7 9 13 12 10 8 6 6 5 5 5 6 5 5 5 5 5 5 5 4 5 6 6 5 6 6 6 7 4 4 5 5 5 5 5 6 6 5 4 5 7 7 8 8 7 7 8 11 12 16 14 19 19 19 21 22 22 21 21 21 20 19 18 17 17 17 17 18 18
6 7 7 7 11 13 13 10 12 13 13 12 8 6 4 5 4 5 5 6 6 5 6 6 5 6 7 6 6 5 5 4 3 4 4 5 4 4 5 5 4 5 6 6 7 6 4 6 7 6 7 6 8 8 8 7 10 14 18 21 21 20 20 19 20 20 19 19 19 19 20 20 20 19
6 5 6 6 7 8 7 7 11 12 13 12 12 12 11 8 6 5 6 6 5 6 7 6 6 7 8 8 7 7 5 3 4 3 3 5 4 4 6 8 4 3 6 5 6 5 3 5 8 8 8 8 9 10 10 14 16 16 15 16 16 17 18 19 19 19 20 20 20 20 20 20 20 20
5 5 6 5 4 4 4 4 6 10 13 14 14 13 12 12 12 11 10 9 7 7 7 7 7 7 8 7 5 6 5 3 2 3 3 3 5 6 7 7 8 1 2 6 8 9 4 6 9 10 9 9 9 10 12 15 15 16 17 17 17 16 16 18 19 20 21 21 21 21 21 21 21 21
5 5 5 5 5 4 5 3 3 3 6 10 13 13 13 12 11 12 12 10 9 7 8 9 9 8 7 8 6 3 2 0 3 3 5 5 5 6 8 7 6 4 2 5 8 11 7 7 10 9 8 8 8 9 12 15 16 17 18 19 20 20 20 19 19 19 20 20 21 21 22 22 21 22
5 5 5 5 5 4 4 4 4 4 4 4 6 7 5 5 8 8 11 13 15 11 8 9 11 8 6 7 4 2 1 3 5 4 5 5 7 8 8 6 6 6 5 9 9 12 9 7 8 9 8 8 9 9 13 17 18 19 20 19 18 18 19 19 20 20 20 21 22 22 22 22 22 22
2 2 4 3 4 3 3 3 4 4 4 4 5 4 3 3 1 2 7 7 6 6 7 8 12 11 9 9 9 6 2 4 5 4 5 4 5 8 8 8 9 10 8 9 9 12 9 5 8 8 8 8 9 7 10 14 16 15 15 15 15 16 17 18 20 21 21 22 21 21 21 21 22 23
5 4 6 6 4 5 5 6 7 3 1 1 2 3 2 4 5 7 9 9 8 8 6 4 4 6 7 9 9 6 7 5 3 5 5 5 6 7 8 9 7 8 5 6 8 10 10 6 10 9 7 8 9 7 6 8 11 11 13 15 16 17 17 18 19 20 21 21 21 22 21 21 22 23
3 4 2 9 9 9 8 4 7 6 3 2 4 5 6 6 6 7 7 11 15 15 13 12 12 13 13 12 10 7 6 7 4 1 4 6 6 7 9 8 7 7 5 5 7 9 11 7 8 10 7 6 5 5 6 5 9 12 14 15 16 16 17 18 19 20 20 20 21 22 23 23 22 24
1 7 7 1 4 9 12 7 8 6 4 3 4 5 5 5 6 5 4 1 3 7 10 12 14 14 14 14 12 12 12 10 5 4 8 8 6 7 6 8 8 7 5 7 9 9 10 9 4 5 4 5 4 5 5 6 8 12 13 16 17 17 18 19 21 21 21 21 21 20 21 21 21 17
4 3 4 6 11 13 14 9 8 8 6 4 4 4 4 5 5 4 2 1 3 4 5 6 7 7 10 8 6 8 13 14 9 8 9 7 7 8 8 9 8 8 7 7 8 7 4 6 5 6 7 8 6 5 6 6 7 9 10 11 12 15 18 19 18 18 18 18 20 21 22 22 20 13
3 4 4 6 16 19 21 13 11 10 8 5 3 3 3 4 4 3 3 2 3 3 4 5 6 6 5 6 6 7 9 10 9 8 8 8 8 9 9 8 7 9 8 7 2 5 6 4 6 4 7 9 11 6 5 8 8 10 10 11 10 13 17 18 18 20 19 18 20 21 23 23 22 14
5 6 5 6 13 19 18 13 10 9 8 5 3 3 4 2 1 1 2 3 5 4 4 5 5 6 6 6 6 6 3 4 4 6 7 9 9 9 8 8 10 8 8 5 9 8 7 7 9 7 7 6 9 11 9 10 9 9 9 9 11 11 10 9 9 12 14 19 20 22 23 24 26 20
7 6 5 7 6 7 7 5 6 6 6 4 3 2 5 5 1 1 2 4 4 5 4 4 4 5 5 5 5 4 3 5 7 7 6 7 8 8 9 9 6 6 7 6 10 8 8 5 6 8 8 9 10 9 12 11 10 10 9 9 10 11 10 12 11 12 11 12 13 15 18 22 22 24
7 5 5 2 5 6 8 8 7 7 6 5 4 5 5 4 2 3 3 3 3 3 4 5 5 5 5 5 3 4 4 6 3 2 2 5 7 7 6 6 6 8 8 8 6 5 6 7 6 8 10 9 12 11 11 11 10 7 10 11 12 10 10 11 12 12 12 13 14 20 21 24 25 27
4 4 1 5 7 8 8 7 7 6 7 3 3 4 4 4 3 3 3 3 4 5 5 5 4 4 4 4 4 5 5 3 3 3 4 4 7 6 6 7 9 10 8 6 7 7 7 8 8 7 9 9 11 11 12 10 10 10 12 11 11 11 11 11 12 13 13 13 14 14 13 14 14 16
2 7 10 9 7 7 6 6 6 5 7 4 5 5 5 5 3 4 4 4 3 4 3 4 4 5 5 5 5 2 2 2 2 3 4 5 5 7 8 7 4 4 6 7 8 8 9 8 10 10 10 9 9 9 9 11 11 11 11 13 13 11 11 11 12 13 13 13 14 14 15 14 15 15
8 8 8 9 8 7 6 4 4 5 6 9 9 7 6 4 4 4 4 4 3 2 3 3 4 4 4 3 3 4 3 4 6 6 6 5 6 4 4 6 7 7 8 9 9 9 10 10 10 10 9 7 6 8 9 10 12 11 11 11 13 14 12 10 11 12 14 15 15 15 15 15 16 15
3 5 6 5 8 6 10 10 3 4 6 5 4 5 5 5 5 4 5 5 4 3 3 3 4 4 4 3 4 3 2 4 4 4 4 5 4 5 5 6 8 8 8 8 10 10 10 10 10 7 7 7 7 8 10 9 11 12 12 11 11 13 14 13 12 13 14 14 15 16 15 15 16 17
7 6 6 6 5 5 6 6 5 5 5 6 5 6 6 5 4 5 2 2 2 3 4 4 4 4 4 4 2 3 4 4 5 4 3 3 5 4 5 6 8 8 8 8 8 8 8 6 7 7 6 5 8 10 9 9 10 11 13 12 12 12 13 14 14 14 14 15 15 16 15 14 15 14
8 6 6 7 8 8 8 8 6 5 5 4 4 4 3 5 7 6 5 4 4 4 4 5 5 4 1 2 3 4 4 4 4 3 4 3 5 6 6 7 8 8 8 8 6 7 6 7 8 7 6 6 8 10 9 9 11 11 13 14 12 13 13 13 14 15 15 15 15 15 15 15 14 14
3 7 8 9 9 8 7 5 3 5 4 5 4 4 3 2 3 2 2 4 3 2 3 4 1 2 2 4 4 4 4 4 5 3 4 5 6 6 6 7 7 6 7 7 7 8 8 8 7 6 5 6 7 8 9 9 11 12 12 12 12 14 14 13 13 15 14 14 15 16 16 16 15 13
3 4 5 6 5 5 5 4 6 4 4 4 4 4 3 4 5 3 4 2 0 2 1 2 1 2 2 3 3 4 5 5 4 5 5 6 6 5 6 6 7 7 6 7 8 7 7 9 9 9 8 7 8 6 8 11 10 11 10 12 12 13 14 13 14 14 14 14 12 14 15 15 15 12
3 4 4 5 5 4 5 2 1 2 3 4 3 3 4 4 2 2 2 2 1 3 2 2 3 4 4 4 4 5 4 3 4 5 5 5 5 6 5 6 6 6 6 7 7 7 9 10 9 8 8 9 10 12 9 10 11 7 9 12 12 12 14 14 14 14 13 13 13 12 14 15 15 12
5 5 5 5 4 4 3 2 0 2 3 3 4 4 1 1 1 1 2 2 1 1 1 1 3 2 2 3 3 3 3 4 5 5 6 5 5 5 6 5 6 6 7 7 7 9 9 10 7 4 6 9 11 12 13 9 10 9 6 10 12 12 14 15 15 15 13 12 13 12 12 14 16 13
4 4 5 4 2 1 1 2 2 2 1 1 4 4 2 1 2 3 5 2 2 2 2 2 3 3 4 4 4 4 4 5 5 5 4 5 6 4 4 6 6 6 7 8 8 8 7 7 4 4 5 8 11 12 14 13 11 11 9 9 12 14 13 14 14 15 16 13 11 12 12 15 15 12
3 3 3 4 2 5 4 5 4 3 4 4 3 2 3 3 2 5 3 4 6 6 5 3 3 4 5 5 5 4 5 5 5 5 5 5 5 4 6 6 7 7 8 8 7 7 8 7 5 5 5 8 10 11 11 13 13 13 14 13 9 12 12 12 15 15 14 14 14 13 14 13 16 23
5 2 2 4 3 3 5 4 4 3 3 3 1 2 3 2 3 4 2 3 3 3 3 4 4 4 4 5 4 4 4 5 4 4 5 5 5 5 6 6 7 8 7 7 9 9 8 6 6 7 6 7 10 10 9 11 10 10 11 12 11 10 12 11 14 15 15 13 11 12 15 15 11 4
2 1 1 3 2 1 1 2 1 1 1 1 2 0 1 2 3 3 4 2 1 3 3 4 3 4 5 4 3 4 4 4 4 5 4 5 6 6 8 8 6 5 6 8 8 9 8 6 9 14 9 7 9 7 7 9 12 13 13 12 13 15 17 15 12 12 12 15 12 12 14 12 11 5
3 3 3 2 1 2 1 1 2 3 2 2 2 2 1 5 5 3 1 2 1 0 3 4 5 5 3 3 4 3 4 4 5 4 5 6 7 6 7 6 6 6 7 8 9 9 7 8 9 8 7 7 7 8 10 10 12 13 13 12 12 14 17 18 19 17 12 11 14 14 10 10 9 3
3 2 2 3 3 2 1 2 2 3 3 3 3 4 5 3 1 1 1 2 2 4 4 4 2 3 3 4 3 3 4 4 4 5 7 7 6 6 6 6 6 7 7 8 8 7 8 9 8 7 7 6 5 5 8 10 11 12 13 13 14 13 14 16 16 17 15 15 12 14 11 7 8 5
2 2 2 3 1 2 3 2 1 2 1 2 4 5 4 2 3 3 3 4 3 3 2 2 2 3 3 3 4 3 4 4 5 6 6 5 6 6 6 6 6 6 7 8 7 8 9 9 8 6 7 6 5 6 9 10 11 11 11 13 14 15 15 14 14 13 12 9 15 22 22 19 7 11
3 2 2 3 1 2 2 2 1 1 1 1 6 2 3 2 2 3 3 3 4 3 2 1 2 3 2 3 4 4 4 5 6 5 5 5 6 6 6 7 7 7 7 7 8 9 9 9 8 5 5 6 5 6 7 9 11 11 11 13 16 15 13 13 14 15 13 12 17 26 23 23 21 14
Wind_Direction
232 199 205 195 201 240 292 15 267 195 205 206 198 204 230 219 253 283 279 279 279 283 311 297 248 230 145 185 179 209 200 227 237 248 255 267 268 296 250 227 228 236 244 248 246 246 238 242 245 253 256 259 263 270 276 280 284 287 288 287 289 292 293 292 289 286 282 278 277 274 269 267 266 265
236 225 214 184 193 200 206 198 209 207 207 213 210 217 211 200 225 250 279 281 291 300 309 299 176 216 251 194 201 189 218 238 249 243 243 239 253 183 183 205 215 222 230 233 235 238 242 247 248 249 251 253 252 258 266 271 273 279 284 287 287 287 288 289 286 284 282 279 277 274 274 271 267 265
221 213 219 201 206 210 213 211 197 203 195 199 208 220 211 211 209 235 249 276 255 259 282 281 301 271 221 244 241 207 198 241 252 256 253 251 257 272 256 230 222 226 230 233 236 239 244 246 245 245 243 249 245 249 254 259 265 270 275 281 285 285 284 284 285 284 282 280 277 275 276 276 274 270
213 205 205 208 207 201 211 224 225 222 213 207 195 199 218 233 226 214 231 247 268 270 291 291 280 265 264 232 229 222 212 216 228 239 243 251 271 262 247 251 244 238 237 238 239 242 244 246 247 246 246 245 242 247 248 254 260 264 267 273 279 282 282 280 280 282 281 278 274 271 271 273 275 274
214 192 191 202 201 198 210 208 212 221 220 207 207 201 198 208 210 211 220 237 258 248 230 254 265 282 299 290 268 266 239 223 224 224 219 227 244 253 250 249 248 237 234 237 241 248 250 245 241 239 238 240 239 241 242 252 257 263 267 269 271 274 277 278 275 275 277 276 273 270 269 269 271 273
220 191 198 215 222 216 221 215 218 218 233 222 219 212 205 213 221 209 225 232 244 263 243 258 247 255 232 276 230 237 235 243 230 219 213 222 246 262 269 262 252 258 234 217 233 237 237 235 235 236 238 241 244 246 247 251 253 257 261 264 265 267 268 270 270 267 269 271 274 272 269 266 266 268
201 211 212 216 219 219 227 224 226 233 236 232 231 238 224 225 224 225 221 228 249 264 264 255 279 266 252 253 284 289 291 277 269 248 223 228 236 241 243 251 272 279 270 251 228 231 237 237 235 234 237 241 244 245 247 249 251 253 254 255 257 259 259 261 265 263 265 266 270 274 273 269 266 266
207 213 213 220 224 216 218 219 222 225 233 230 217 223 238 245 242 234 240 233 249 266 282 259 254 262 266 253 251 254 254 276 276 262 248 233 245 257 271 277 273 267 263 254 249 244 237 238 240 238 237 238 241 245 248 250 250 251 252 253 254 254 255 257 258 261 261 264 265 267 270 270 267 265
205 205 211 217 220 219 224 227 229 225 233 230 224 224 219 224 231 235 235 243 232 245 258 273 253 256 259 249 246 238 244 243 261 269 250 244 245 250 250 263 271 292 288 263 256 258 257 249 241 240 240 241 242 245 248 250 250 249 248 250 252 254 253 252 252 253 258 258 259 262 265 267 267 266
212 214 213 218 229 230 223 223 224 226 229 226 224 228 230 222 221 226 230 232 240 237 249 264 282 262 261 266 246 233 225 233 245 261 275 287 282 275 276 263 268 261 265 287 279 260 258 260 255 251 247 247 249 250 250 251 250 248 247 247 247 249 251 251 251 251 251 253 254 256 260 263 265 266
217 217 216 221 222 226 227 228 229 234 237 234 235 225 225 226 227 236 235 233 235 236 245 250 253 267 258 253 269 246 236 233 222 241 258 270 253 250 246 258 250 245 254 256 265 274 280 281 277 253 241 241 244 247 250 251 252 251 249 246 244 244 246 248 249 250 249 250 252 251 253 258 261 260
218 214 217 222 220 219 218 219 219 222 233 227 234 225 220 222 228 232 235 234 235 237 241 240 255 258 275 275 271 273 260 257 253 232 234 247 255 250 236 232 241 250 256 265 264 264 264 259 255 258 261 260 257 253 251 251 250 249 248 247 246 245 245 246 248 249 250 249 250 251 251 253 256 256
219 224 227 230 228 222 218 212 212 213 211 218 227 223 217 227 225 226 227 233 238 247 253 263 263 269 269 264 270 271 259 248 250 237 225 245 242 247 257 252 240 245 252 254 264 265 260 261 260 263 260 248 247 250 245 246 246 246 245 247 247 246 245 245 245 248 250 251 249 249 249 248 249 250
218 228 234 236 229 228 229 221 214 212 216 222 226 225 217 224 224 221 227 233 234 236 247 252 250 254 256 256 247 252 252 251 258 267 257 263 263 267 267 264 253 257 261 266 260 255 249 262 267 260 263 260 257 265 261 254 243 243 242 245 247 247 247 247 246 247 248 248 247 245 245 245 244 244
219 230 231 234 236 232 223 214 212 215 220 224 231 240 241 233 227 234 238 239 233 237 241 240 236 241 248 250 254 253 265 257 257 257 275 278 287 285 289 286 279 237 255 261 272 267 251 269 272 266 262 267 268 266 262 264 264 258 252 248 245 246 245 243 243 244 245 247 248 247 246 245 244 241
223 229 238 245 246 243 237 230 215 217 215 218 225 232 237 242 243 237 238 246 250 246 247 248 249 254 253 253 247 254 251 256 290 283 284 283 289 284 276 274 273 253 290 284 280 274 262 270 268 272 269 267 267 264 260 258 255 255 257 259 255 244 236 235 236 237 238 240 242 246 248 247 246 243
213 218 220 237 243 245 242 244 242 208 215 227 230 231 236 245 245 249 251 249 251 256 253 253 254 250 258 257 249 249 263 332 276 277 274 275 272 273 274 270 279 277 285 296 281 276 270 264 269 271 271 268 266 266 263 257 253 254 256 256 253 251 248 243 237 236 238 239 242 245 248 249 246 244
214 210 220 220 232 230 236 236 235 243 239 212 216 231 227 232 248 246 250 251 245 243 253 259 259 258 278 273 270 257 262 268 265 268 269 271 272 264 264 280 283 280 281 271 280 277 272 260 265 265 269 267 265 260 256 255 256 257 259 259 259 259 259 259 257 254 250 248 246 245 246 247 246 246
296 269 251 245 248 244 247 231 241 250 246 240 224 203 197 222 243 264 262 243 222 214 223 248 267 273 275 287 293 281 256 261 263 258 264 263 268 274 280 279 271 273 260 256 256 269 271 252 259 257 259 255 255 251 251 247 249 252 255 257 257 256 255 255 257 256 255 254 251 248 245 245 246 247
231 239 246 247 248 260 245 245 242 214 133 293 237 185 229 254 246 248 244 244 242 242 246 222 231 240 257 271 251 247 258 252 270 272 267 267 264 270 269 265 268 266 262 244 253 269 275 264 265 265 255 262 267 265 266 279 286 288 286 280 271 264 260 259 258 257 254 252 251 251 251 250 250 252
240 246 8 15 342 315 291 235 186 193 163 228 228 225 229 230 234 246 250 240 244 242 238 248 252 258 274 279 277 266 241 236 233 283 293 269 270 268 271 268 267 266 266 264 273 280 285 282 276 275 268 263 274 283 284 286 289 289 284 279 278 276 276 273 267 262 258 255 253 252 250 249 247 246
72 46 45 306 276 267 266 201 191 194 166 197 231 252 256 266 262 262 267 243 196 230 233 248 255 253 259 266 256 251 248 228 179 196 239 251 256 261 270 283 277 282 290 282 274 271 266 278 279 299 310 303 282 295 303 305 301 298 294 289 284 281 278 273 266 258 255 254 256 256 254 253 250 250
177 173 170 225 247 254 261 200 182 178 176 199 224 243 253 258 264 274 311 23 173 201 218 232 231 236 234 235 239 245 245 250 230 214 237 250 255 258 258 268 283 287 271 263 259 269 306 325 315 324 315 298 288 284 292 295 294 291 285 281 281 277 276 273 268 265 264 261 257 254 253 251 248 248
223 215 215 230 249 253 257 220 188 180 186 214 218 239 246 247 253 39 350 311 301 283 231 228 238 255 260 252 251 247 241 237 238 236 242 251 248 250 256 253 256 269 274 271 333 325 291 298 298 300 289 301 301 301 296 290 284 283 283 283 281 281 276 274 272 268 263 258 257 255 253 251 244 247
205 208 215 224 243 244 239 227 191 184 191 198 219 213 239 243 107 306 279 291 297 293 289 278 262 244 235 237 244 257 270 279 256 243 234 241 241 244 244 242 252 260 276 293 330 315 301 303 298 312 303 294 295 299 293 286 280 275 277 284 287 283 284 283 287 281 277 272 268 260 254 248 243 237
224 230 218 242 237 213 217 198 166 168 174 195 226 176 108 120 178 255 274 276 258 260 271 280 282 279 284 285 293 294 310 309 280 261 241 230 234 231 238 254 264 273 278 288 292 284 289 297 304 306 296 293 287 284 293 286 281 282 277 281 284 283 282 286 279 276 274 275 275 271 268 259 248 241
217 222 227 118 78 100 112 133 149 162 163 164 222 148 141 142 199 254 257 263 274 272 266 266 268 275 275 288 312 309 288 261 272 26 347 329 313 306 303 292 281 292 298 305 302 303 306 291 290 286 289 285 285 285 277 284 287 292 291 287 284 279 278 278 280 283 284 283 279 275 271 266 264 259
215 231 159 103 106 103 117 132 154 163 174 203 168 161 161 188 214 241 251 241 239 246 252 254 272 293 303 294 274 265 258 293 340 340 318 308 309 306 308 305 295 281 284 295 304 299 292 291 289 278 272 275 278 281 286 281 285 295 294 290 281 282 280 281 285 287 285 281 281 277 274 274 266 261
62 87 102 112 108 114 128 143 156 181 212 188 156 164 182 209 243 222 229 251 259 270 280 298 280 268 260 251 245 264 325 334 311 302 298 302 297 287 275 276 290 319 315 308 300 294 285 278 276 273 268 266 270 275 283 291 296 289 282 289 291 286 288 288 286 284 285 284 281 276 273 271 268 258
107 122 129 136 138 144 161 171 202 217 192 191 193 204 208 225 232 228 236 231 226 259 277 279 286 283 290 300 331 327 322 336 323 305 289 284 280 294 326 327 311 306 298 289 283 277 271 265 262 262 261 258 266 283 283 286 284 283 284 282 286 290 282 285 284 285 288 288 284 280 275 270 267 266
151 162 167 171 188 199 197 209 191 117 128 149 193 213 214 225 240 230 215 217 211 215 227 254 260 272 286 310 311 300 331 302 285 285 287 293 308 324 315 306 297 293 281 274 271 267 265 265 264 261 273 281 280 268 275 277 282 284 285 285 294 292 297 293 287 286 288 285 285 279 276 272 271 265
203 184 181 188 198 197 196 208 211 195 185 188 197 207 208 206 224 250 241 159 202 238 242 254 261 275 281 276 300 333 312 296 289 287 296 309 304 300 300 293 286 282 280 273 269 264 266 274 278 267 251 261 279 285 281 276 276 282 286 289 288 286 288 293 293 291 287 288 285 282 278 275 275 273
203 155 162 194 204 207 205 200 194 180 187 203 218 236 210 203 210 214 206 230 221 220 230 238 235 237 297 323 310 290 296 285 292 299 303 296 292 284 273 273 277 283 289 293 295 298 297 290 278 269 263 272 274 275 280 291 282 286 289 291 295 292 292 289 292 292 294 291 287 287 285 281 280 267
199 172 196 206 213 211 214 198 184 204 199 196 200 218 260 287 289 274 245 222 236 215 234 255 223 28 318 292 291 288 294 303 289 303 310 292 278 274 277 279 282 286 292 297 305 306 303 293 290 280 279 283 281 270 263 275 281 281 279 289 291 291 289 292 291 291 290 286 287 287 285 287 281 265
240 269 262 262 269 263 261 219 198 197 201 204 192 195 203 217 224 231 245 269 83 281 345 6 318 263 294 305 316 316 298 287 296 298 277 266 273 276 285 289 292 294 298 307 309 305 305 305 301 296 296 300 298 273 223 233 260 267 284 286 290 290 296 297 299 297 293 289 286 281 285 284 278 264
250 265 265 257 252 263 267 264 156 200 176 171 199 200 227 215 184 208 257 110 50 38 3 354 343 336 310 300 287 273 277 292 298 290 291 289 288 288 286 286 295 305 312 306 306 310 306 296 293 293 308 314 311 307 300 211 216 253 284 292 294 300 299 300 298 296 291 290 284 281 286 285 285 274
237 235 246 259 261 258 268 323 16 140 163 183 210 212 203 64 103 326 98 138 65 330 337 264 260 269 297 294 299 306 332 328 302 294 284 286 291 292 292 304 315 308 304 306 307 297 291 289 288 303 311 312 313 308 298 306 286 276 262 291 300 302 304 305 305 301 297 290 288 285 283 286 284 276
252 249 249 266 286 294 146 259 333 360 11 84 32 49 25 3 348 14 54 36 336 319 334 337 346 357 333 326 327 326 307 283 278 282 294 299 295 298 313 317 308 308 308 302 294 289 289 292 304 312 312 309 311 309 309 312 313 310 305 299 301 303 304 303 305 308 307 304 291 290 293 289 281 279
276 290 297 278 26 32 7 61 66 53 22 28 33 20 357 358 7 67 33 12 24 10 347 348 353 7 336 315 291 276 278 290 298 300 303 303 302 314 322 314 309 305 300 297 299 304 303 297 310 307 295 299 296 293 293 301 304 302 304 299 286 300 302 307 306 309 308 310 306 300 293 270 273 268
210 240 324 356 16 35 53 35 40 37 16 41 342 34 30 352 320 268 148 87 71 44 338 316 313 305 284 270 282 301 294 293 302 313 307 304 320 321 311 303 298 295 296 308 311 307 300 303 313 303 285 277 275 276 282 294 287 289 296 304 292 283 296 304 306 311 313 309 305 309 307 309 304 253
221 168 82 60 33 58 45 35 306 176 109 71 311 273 228 282 304 42 79 68 29 359 325 301 284 277 269 272 287 298 308 317 318 307 311 331 321 310 294 293 296 302 311 308 305 303 304 316 311 304 283 272 285 297 306 314 318 319 318 312 317 309 303 306 308 311 308 311 305 313 305 300 290 248
164 149 120 108 36 39 72 199 348 350 357 351 314 341 56 65 48 78 351 158 154 232 262 269 264 253 279 318 316 324 328 318 307 322 336 320 303 297 303 311 309 314 310 309 306 304 312 320 313 314 310 312 321 332 324 323 320 319 315 318 320 316 317 319 320 317 317 321 321 324 321 316 310 290
73 110 111 92 75 84 34 2 65 40 351 355 348 6 340 314 143 82 283 266 219 222 222 238 287 344 325 303 312 328 319 318 337 331 305 296 303 311 317 313 311 310 311 305 300 311 319 314 310 316 324 325 325 317 318 322 321 318 322 328 327 328 326 327 329 326 325 321 323 312 310 275 274 293
72 56 72 93 103 93 93 104 102 83 318 315 356 313 276 334 11 345 326 319 280 260 291 357 332 297 296 319 349 340 323 325 314 294 297 308 312 316 312 314 317 315 312 308 317 323 318 315 308 318 324 321 319 321 321 329 330 329 331 329 329 335 332 334 334 334 338 320 338 345 4 15 328 263
115 132 98 112 176 223 158 114 116 219 257 265 249 233 45 359 274 265 266 271 289 295 283 300 309 303 335 7 356 315 306 288 284 299 314 316 315 315 318 325 315 316 314 322 329 322 319 313 310 315 327 327 333 318 320 333 332 333 337 340 339 336 334 340 343 344 341 335 350 356 2 18 21 38